Year,Month,Day,Hour,Minute,Value (Times are PST for temperature in C)
2020,04,16,00,00,9.10
2020,04,16,00,01,9.20
2020,04,16,00,02,9.30
2020,04,16,00,03,9.40
2020,04,16,00,04,9.50
2020,04,16,00,05,9.60
2020,04,16,00,06,9.70
2020,04,16,00,07,9.70
2020,04,16,00,08,9.80
2020,04,16,00,09,9.80
2020,04,16,00,10,9.90
2020,04,16,00,11,9.90
2020,04,16,00,12,9.90
2020,04,16,00,13,9.90
2020,04,16,00,14,10.00
2020,04,16,00,15,10.10
2020,04,16,00,16,10.10
2020,04,16,00,17,10.10
2020,04,16,00,18,9.90
2020,04,16,00,19,9.90
2020,04,16,00,20,9.90
2020,04,16,00,21,9.90
2020,04,16,00,22,10.00
2020,04,16,00,23,10.10
2020,04,16,00,24,10.10
2020,04,16,00,25,10.10
2020,04,16,00,26,10.10
2020,04,16,00,27,10.10
2020,04,16,00,28,10.10
2020,04,16,00,29,10.10
2020,04,16,00,30,10.10
2020,04,16,00,31,10.10
2020,04,16,00,32,10.10
2020,04,16,00,33,10.10
2020,04,16,00,34,10.10
2020,04,16,00,35,10.10
2020,04,16,00,36,10.10
2020,04,16,00,37,10.10
2020,04,16,00,38,10.10
2020,04,16,00,39,10.10
2020,04,16,00,40,10.10
2020,04,16,00,41,10.10
2020,04,16,00,42,10.10
2020,04,16,00,43,10.00
2020,04,16,00,44,9.90
2020,04,16,00,45,9.90
2020,04,16,00,46,9.90
2020,04,16,00,47,9.80
2020,04,16,00,48,9.70
2020,04,16,00,49,9.70
2020,04,16,00,50,9.70
2020,04,16,00,51,9.60
2020,04,16,00,52,9.50
2020,04,16,00,53,9.40
2020,04,16,00,54,9.30
2020,04,16,00,55,9.20
2020,04,16,00,56,9.20
2020,04,16,00,57,9.10
2020,04,16,00,58,9.10
2020,04,16,00,59,9.00
2020,04,16,01,00,9.00
2020,04,16,01,01,8.90
2020,04,16,01,02,8.80
2020,04,16,01,03,8.70
2020,04,16,01,04,8.70
2020,04,16,01,05,8.70
2020,04,16,01,06,8.60
2020,04,16,01,07,8.50
2020,04,16,01,08,8.50
2020,04,16,01,09,8.40
2020,04,16,01,10,8.30
2020,04,16,01,11,8.20
2020,04,16,01,12,8.10
2020,04,16,01,13,8.00
2020,04,16,01,14,8.00
2020,04,16,01,15,8.00
2020,04,16,01,16,8.10
2020,04,16,01,17,8.20
2020,04,16,01,18,8.30
2020,04,16,01,19,8.30
2020,04,16,01,20,8.40
2020,04,16,01,21,8.50
2020,04,16,01,22,8.60
2020,04,16,01,23,8.60
2020,04,16,01,24,8.70
2020,04,16,01,25,8.70
2020,04,16,01,26,8.70
2020,04,16,01,27,8.80
2020,04,16,01,28,8.80
2020,04,16,01,29,8.90
2020,04,16,01,30,8.90
2020,04,16,01,31,8.90
2020,04,16,01,32,8.90
2020,04,16,01,33,8.90
2020,04,16,01,34,8.90
2020,04,16,01,35,9.00
2020,04,16,01,36,9.00
2020,04,16,01,37,9.10
2020,04,16,01,38,9.20
2020,04,16,01,39,9.30
2020,04,16,01,40,9.30
2020,04,16,01,41,9.30
2020,04,16,01,42,9.30
2020,04,16,01,43,9.40
2020,04,16,01,44,9.70
2020,04,16,01,45,10.00
2020,04,16,01,46,10.30
2020,04,16,01,47,10.50
2020,04,16,01,48,10.70
2020,04,16,01,49,10.90
2020,04,16,01,50,11.00
2020,04,16,01,51,11.10
2020,04,16,01,52,11.10
2020,04,16,01,53,11.10
2020,04,16,01,54,11.20
2020,04,16,01,55,11.10
2020,04,16,01,56,11.10
2020,04,16,01,57,11.10
2020,04,16,01,58,11.10
2020,04,16,01,59,11.10
2020,04,16,02,00,11.10
2020,04,16,02,01,11.10
2020,04,16,02,02,11.10
2020,04,16,02,03,11.10
2020,04,16,02,04,11.10
2020,04,16,02,05,11.00
2020,04,16,02,06,10.90
2020,04,16,02,07,10.90
2020,04,16,02,08,10.90
2020,04,16,02,09,10.90
2020,04,16,02,10,10.90
2020,04,16,02,11,10.90
2020,04,16,02,12,10.90
2020,04,16,02,13,10.90
2020,04,16,02,14,10.90
2020,04,16,02,15,10.90
2020,04,16,02,16,11.00
2020,04,16,02,17,11.10
2020,04,16,02,18,11.10
2020,04,16,02,19,11.20
2020,04,16,02,20,11.20
2020,04,16,02,21,11.30
2020,04,16,02,22,11.40
2020,04,16,02,23,11.40
2020,04,16,02,24,11.40
2020,04,16,02,25,11.40
2020,04,16,02,26,11.40
2020,04,16,02,27,11.40
2020,04,16,02,28,11.40
2020,04,16,02,29,11.30
2020,04,16,02,30,11.30
2020,04,16,02,31,11.30
2020,04,16,02,32,11.20
2020,04,16,02,33,11.20
2020,04,16,02,34,11.20
2020,04,16,02,35,11.20
2020,04,16,02,36,11.20
2020,04,16,02,37,11.20
2020,04,16,02,38,11.30
2020,04,16,02,39,11.30
2020,04,16,02,40,11.30
2020,04,16,02,41,11.40
2020,04,16,02,42,11.40
2020,04,16,02,43,11.40
2020,04,16,02,44,11.40
2020,04,16,02,45,11.40
2020,04,16,02,46,11.40
2020,04,16,02,47,11.40
2020,04,16,02,48,11.40
2020,04,16,02,49,11.20
2020,04,16,02,50,10.90
2020,04,16,02,51,10.80
2020,04,16,02,52,10.60
2020,04,16,02,53,10.60
2020,04,16,02,54,10.40
2020,04,16,02,55,10.40
2020,04,16,02,56,10.30
2020,04,16,02,57,10.20
2020,04,16,02,58,10.10
2020,04,16,02,59,10.00
2020,04,16,03,00,9.90
2020,04,16,03,01,9.90
2020,04,16,03,02,9.80
2020,04,16,03,03,9.70
2020,04,16,03,04,9.70
2020,04,16,03,05,9.70
2020,04,16,03,06,9.50
2020,04,16,03,07,9.40
2020,04,16,03,08,9.30
2020,04,16,03,09,9.20
2020,04,16,03,10,9.10
2020,04,16,03,11,8.90
2020,04,16,03,12,8.70
2020,04,16,03,13,8.50
2020,04,16,03,14,8.20
2020,04,16,03,15,8.00
2020,04,16,03,16,7.80
2020,04,16,03,17,7.60
2020,04,16,03,18,7.50
2020,04,16,03,19,7.40
2020,04,16,03,20,7.30
2020,04,16,03,21,7.30
2020,04,16,03,22,7.30
2020,04,16,03,23,7.30
2020,04,16,03,24,7.30
2020,04,16,03,25,7.40
2020,04,16,03,26,7.50
2020,04,16,03,27,7.50
2020,04,16,03,28,7.60
2020,04,16,03,29,7.70
2020,04,16,03,30,7.70
2020,04,16,03,31,7.80
2020,04,16,03,32,7.80
2020,04,16,03,33,7.80
2020,04,16,03,34,7.80
2020,04,16,03,35,7.80
2020,04,16,03,36,7.80
2020,04,16,03,37,7.70
2020,04,16,03,38,7.70
2020,04,16,03,39,7.60
2020,04,16,03,40,7.60
2020,04,16,03,41,7.50
2020,04,16,03,42,7.50
2020,04,16,03,43,7.50
2020,04,16,03,44,7.50
2020,04,16,03,45,7.50
2020,04,16,03,46,7.50
2020,04,16,03,47,7.50
2020,04,16,03,48,7.50
2020,04,16,03,49,7.50
2020,04,16,03,50,7.50
2020,04,16,03,51,7.50
2020,04,16,03,52,7.60
2020,04,16,03,53,7.60
2020,04,16,03,54,7.60
2020,04,16,03,55,7.70
2020,04,16,03,56,7.70
2020,04,16,03,57,7.80
2020,04,16,03,58,7.80
2020,04,16,03,59,7.80
2020,04,16,04,00,7.90
2020,04,16,04,01,7.90
2020,04,16,04,02,7.90
2020,04,16,04,03,8.00
2020,04,16,04,04,8.00
2020,04,16,04,05,8.10
2020,04,16,04,06,8.10
2020,04,16,04,07,8.10
2020,04,16,04,08,8.20
2020,04,16,04,09,8.20
2020,04,16,04,10,8.30
2020,04,16,04,11,8.50
2020,04,16,04,12,8.60
2020,04,16,04,13,8.60
2020,04,16,04,14,8.70
2020,04,16,04,15,8.70
2020,04,16,04,16,8.70
2020,04,16,04,17,8.70
2020,04,16,04,18,8.80
2020,04,16,04,19,8.80
2020,04,16,04,20,8.80
2020,04,16,04,21,8.80
2020,04,16,04,22,8.80
2020,04,16,04,23,8.80
2020,04,16,04,24,8.90
2020,04,16,04,25,8.90
2020,04,16,04,26,8.90
2020,04,16,04,27,8.90
2020,04,16,04,28,8.90
2020,04,16,04,29,8.90
2020,04,16,04,30,8.90
2020,04,16,04,31,8.90
2020,04,16,04,32,8.90
2020,04,16,04,33,8.90
2020,04,16,04,34,8.90
2020,04,16,04,35,8.90
2020,04,16,04,36,8.80
2020,04,16,04,37,8.80
2020,04,16,04,38,8.80
2020,04,16,04,39,8.80
2020,04,16,04,40,8.80
2020,04,16,04,41,8.80
2020,04,16,04,42,8.80
2020,04,16,04,43,8.90
2020,04,16,04,44,9.00
2020,04,16,04,45,9.10
2020,04,16,04,46,9.20
2020,04,16,04,47,9.20
2020,04,16,04,48,9.20
2020,04,16,04,49,9.20
2020,04,16,04,50,9.20
2020,04,16,04,51,9.20
2020,04,16,04,52,9.20
2020,04,16,04,53,9.20
2020,04,16,04,54,9.10
2020,04,16,04,55,9.00
2020,04,16,04,56,9.00
2020,04,16,04,57,9.00
2020,04,16,04,58,8.90
2020,04,16,04,59,8.90
2020,04,16,05,00,8.80
2020,04,16,05,01,8.70
2020,04,16,05,02,8.70
2020,04,16,05,03,8.70
2020,04,16,05,04,8.60
2020,04,16,05,05,8.60
2020,04,16,05,06,8.60
2020,04,16,05,07,8.60
2020,04,16,05,08,8.60
2020,04,16,05,09,8.60
2020,04,16,05,10,8.60
2020,04,16,05,11,8.60
2020,04,16,05,12,8.60
2020,04,16,05,13,8.60
2020,04,16,05,14,8.70
2020,04,16,05,15,8.70
2020,04,16,05,16,8.70
2020,04,16,05,17,8.70
2020,04,16,05,18,8.60
2020,04,16,05,19,8.50
2020,04,16,05,20,8.40
2020,04,16,05,21,8.30
2020,04,16,05,22,8.20
2020,04,16,05,23,8.20
2020,04,16,05,24,8.20
2020,04,16,05,25,8.20
2020,04,16,05,26,8.20
2020,04,16,05,27,8.30
2020,04,16,05,28,8.40
2020,04,16,05,29,8.60
2020,04,16,05,30,8.70
2020,04,16,05,31,8.80
2020,04,16,05,32,8.90
2020,04,16,05,33,9.00
2020,04,16,05,34,9.10
2020,04,16,05,35,9.20
2020,04,16,05,36,9.30
2020,04,16,05,37,9.30
2020,04,16,05,38,9.30
2020,04,16,05,39,9.40
2020,04,16,05,40,9.40
2020,04,16,05,41,9.30
2020,04,16,05,42,9.30
2020,04,16,05,43,9.30
2020,04,16,05,44,9.30
2020,04,16,05,45,9.20
2020,04,16,05,46,9.00
2020,04,16,05,47,8.90
2020,04,16,05,48,8.80
2020,04,16,05,49,8.70
2020,04,16,05,50,8.60
2020,04,16,05,51,8.50
2020,04,16,05,52,8.50
2020,04,16,05,53,8.40
2020,04,16,05,54,8.40
2020,04,16,05,55,8.40
2020,04,16,05,56,8.40
2020,04,16,05,57,8.50
2020,04,16,05,58,8.60
2020,04,16,05,59,8.70
2020,04,16,06,00,8.90
2020,04,16,06,01,9.00
2020,04,16,06,02,9.00
2020,04,16,06,03,9.10
2020,04,16,06,04,9.20
2020,04,16,06,05,9.20
2020,04,16,06,06,9.30
2020,04,16,06,07,9.30
2020,04,16,06,08,9.40
2020,04,16,06,09,9.40
2020,04,16,06,10,9.40
2020,04,16,06,11,9.40
2020,04,16,06,12,9.40
2020,04,16,06,13,9.40
2020,04,16,06,14,9.40
2020,04,16,06,15,9.40
2020,04,16,06,16,9.40
2020,04,16,06,17,9.40
2020,04,16,06,18,9.40
2020,04,16,06,19,9.40
2020,04,16,06,20,9.40
2020,04,16,06,21,9.40
2020,04,16,06,22,9.40
2020,04,16,06,23,9.30
2020,04,16,06,24,9.30
2020,04,16,06,25,9.30
2020,04,16,06,26,9.20
2020,04,16,06,27,9.20
2020,04,16,06,28,9.20
2020,04,16,06,29,9.10
2020,04,16,06,30,9.10
2020,04,16,06,31,9.00
2020,04,16,06,32,9.00
2020,04,16,06,33,9.00
2020,04,16,06,34,9.00
2020,04,16,06,35,9.00
2020,04,16,06,36,9.00
2020,04,16,06,37,9.00
2020,04,16,06,38,9.00
2020,04,16,06,39,9.00
2020,04,16,06,40,9.00
2020,04,16,06,41,9.00
2020,04,16,06,42,9.00
2020,04,16,06,43,9.10
2020,04,16,06,44,9.10
2020,04,16,06,45,9.10
2020,04,16,06,46,9.10
2020,04,16,06,47,9.10
2020,04,16,06,48,9.20
2020,04,16,06,49,9.20
2020,04,16,06,50,9.20
2020,04,16,06,51,9.20
2020,04,16,06,52,9.20
2020,04,16,06,53,9.30
2020,04,16,06,54,9.30
2020,04,16,06,55,9.40
2020,04,16,06,56,9.50
2020,04,16,06,57,9.60
2020,04,16,06,58,9.70
2020,04,16,06,59,9.70
2020,04,16,07,00,9.80
2020,04,16,07,01,9.80
2020,04,16,07,02,9.80
2020,04,16,07,03,9.90
2020,04,16,07,04,9.90
2020,04,16,07,05,9.90
2020,04,16,07,06,9.90
2020,04,16,07,07,9.90
2020,04,16,07,08,9.90
2020,04,16,07,09,9.90
2020,04,16,07,10,9.90
2020,04,16,07,11,9.90
2020,04,16,07,12,9.90
2020,04,16,07,13,10.00
2020,04,16,07,14,10.10
2020,04,16,07,15,10.10
2020,04,16,07,16,10.10
2020,04,16,07,17,10.10
2020,04,16,07,18,10.20
2020,04,16,07,19,10.20
2020,04,16,07,20,10.30
2020,04,16,07,21,10.30
2020,04,16,07,22,10.40
2020,04,16,07,23,10.40
2020,04,16,07,24,10.50
2020,04,16,07,25,10.60
2020,04,16,07,26,10.60
2020,04,16,07,27,10.60
2020,04,16,07,28,10.70
2020,04,16,07,29,10.80
2020,04,16,07,30,10.90
2020,04,16,07,31,11.10
2020,04,16,07,32,11.20
2020,04,16,07,33,11.30
2020,04,16,07,34,11.40
2020,04,16,07,35,11.50
2020,04,16,07,36,11.60
2020,04,16,07,37,11.60
2020,04,16,07,38,11.80
2020,04,16,07,39,11.80
2020,04,16,07,40,11.90
2020,04,16,07,41,11.90
2020,04,16,07,42,12.00
2020,04,16,07,43,12.00
2020,04,16,07,44,12.00
2020,04,16,07,45,12.10
2020,04,16,07,46,12.10
2020,04,16,07,47,12.10
2020,04,16,07,48,12.20
2020,04,16,07,49,12.20
2020,04,16,07,50,12.20
2020,04,16,07,51,12.30
2020,04,16,07,52,12.30
2020,04,16,07,53,12.30
2020,04,16,07,54,12.20
2020,04,16,07,55,12.20
2020,04,16,07,56,12.20
2020,04,16,07,57,12.20
2020,04,16,07,58,12.20
2020,04,16,07,59,12.20
2020,04,16,08,00,12.20
2020,04,16,08,01,12.20
2020,04,16,08,02,12.20
2020,04,16,08,03,12.30
2020,04,16,08,04,12.30
2020,04,16,08,05,12.30
2020,04,16,08,06,12.40
2020,04,16,08,07,12.50
2020,04,16,08,08,12.60
2020,04,16,08,09,12.70
2020,04,16,08,10,12.80
2020,04,16,08,11,12.80
2020,04,16,08,12,12.80
2020,04,16,08,13,12.80
2020,04,16,08,14,12.80
2020,04,16,08,15,12.80
2020,04,16,08,16,12.80
2020,04,16,08,17,12.90
2020,04,16,08,18,12.90
2020,04,16,08,19,13.00
2020,04,16,08,20,13.00
2020,04,16,08,21,13.10
2020,04,16,08,22,13.10
2020,04,16,08,23,13.20
2020,04,16,08,24,13.20
2020,04,16,08,25,13.20
2020,04,16,08,26,13.20
2020,04,16,08,27,13.30
2020,04,16,08,28,13.30
2020,04,16,08,29,13.30
2020,04,16,08,30,13.30
2020,04,16,08,31,13.30
2020,04,16,08,32,13.20
2020,04,16,08,33,13.10
2020,04,16,08,34,13.00
2020,04,16,08,35,12.90
2020,04,16,08,36,12.90
2020,04,16,08,37,12.90
2020,04,16,08,38,13.00
2020,04,16,08,39,13.10
2020,04,16,08,40,13.10
2020,04,16,08,41,13.10
2020,04,16,08,42,13.10
2020,04,16,08,43,13.20
2020,04,16,08,44,13.30
2020,04,16,08,45,13.30
2020,04,16,08,46,13.40
2020,04,16,08,47,13.40
2020,04,16,08,48,13.50
2020,04,16,08,49,13.60
2020,04,16,08,50,13.70
2020,04,16,08,51,13.80
2020,04,16,08,52,13.80
2020,04,16,08,53,13.80
2020,04,16,08,54,13.80
2020,04,16,08,55,13.80
2020,04,16,08,56,13.90
2020,04,16,08,57,13.90
2020,04,16,08,58,13.90
2020,04,16,08,59,14.00
2020,04,16,09,00,14.10
2020,04,16,09,01,14.30
2020,04,16,09,02,14.40
2020,04,16,09,03,14.40
2020,04,16,09,04,14.40
2020,04,16,09,05,14.40
2020,04,16,09,06,14.40
2020,04,16,09,07,14.40
2020,04,16,09,08,14.40
2020,04,16,09,09,14.40
2020,04,16,09,10,14.40
2020,04,16,09,11,14.40
2020,04,16,09,12,14.40
2020,04,16,09,13,14.40
2020,04,16,09,14,14.40
2020,04,16,09,15,14.40
2020,04,16,09,16,14.40
2020,04,16,09,17,14.50
2020,04,16,09,18,14.60
2020,04,16,09,19,14.60
2020,04,16,09,20,14.60
2020,04,16,09,21,14.60
2020,04,16,09,22,14.60
2020,04,16,09,23,14.50
2020,04,16,09,24,14.50
2020,04,16,09,25,14.40
2020,04,16,09,26,14.40
2020,04,16,09,27,14.40
2020,04,16,09,28,14.50
2020,04,16,09,29,14.50
2020,04,16,09,30,14.40
2020,04,16,09,31,14.50
2020,04,16,09,32,14.50
2020,04,16,09,33,14.50
2020,04,16,09,34,14.50
2020,04,16,09,35,14.50
2020,04,16,09,36,14.50
2020,04,16,09,37,14.60
2020,04,16,09,38,14.60
2020,04,16,09,39,14.60
2020,04,16,09,40,14.70
2020,04,16,09,41,14.80
2020,04,16,09,42,14.90
2020,04,16,09,43,15.00
2020,04,16,09,44,15.00
2020,04,16,09,45,15.00
2020,04,16,09,46,14.90
2020,04,16,09,47,14.90
2020,04,16,09,48,15.00
2020,04,16,09,49,15.00
2020,04,16,09,50,14.90
2020,04,16,09,51,15.00
2020,04,16,09,52,15.10
2020,04,16,09,53,15.20
2020,04,16,09,54,15.30
2020,04,16,09,55,15.40
2020,04,16,09,56,15.50
2020,04,16,09,57,15.50
2020,04,16,09,58,15.40
2020,04,16,09,59,15.30
2020,04,16,10,00,15.30
2020,04,16,10,01,15.30
2020,04,16,10,02,15.30
2020,04,16,10,03,15.30
2020,04,16,10,04,15.40
2020,04,16,10,05,15.50
2020,04,16,10,06,15.50
2020,04,16,10,07,15.50
2020,04,16,10,08,15.40
2020,04,16,10,09,15.40
2020,04,16,10,10,15.30
2020,04,16,10,11,15.30
2020,04,16,10,12,15.30
2020,04,16,10,13,15.30
2020,04,16,10,14,15.30
2020,04,16,10,15,15.30
2020,04,16,10,16,15.30
2020,04,16,10,17,15.50
2020,04,16,10,18,15.70
2020,04,16,10,19,15.70
2020,04,16,10,20,15.70
2020,04,16,10,21,15.70
2020,04,16,10,22,15.80
2020,04,16,10,23,15.90
2020,04,16,10,24,16.00
2020,04,16,10,25,16.10
2020,04,16,10,26,15.90
2020,04,16,10,27,15.80
2020,04,16,10,28,15.70
2020,04,16,10,29,15.70
2020,04,16,10,30,15.70
2020,04,16,10,31,15.80
2020,04,16,10,32,15.80
2020,04,16,10,33,15.80
2020,04,16,10,34,15.80
2020,04,16,10,35,15.90
2020,04,16,10,36,15.90
2020,04,16,10,37,15.90
2020,04,16,10,38,16.00
2020,04,16,10,39,16.10
2020,04,16,10,40,16.10
2020,04,16,10,41,16.30
2020,04,16,10,42,16.40
2020,04,16,10,43,16.30
2020,04,16,10,44,16.20
2020,04,16,10,45,16.20
2020,04,16,10,46,16.20
2020,04,16,10,47,16.30
2020,04,16,10,48,16.30
2020,04,16,10,49,16.30
2020,04,16,10,50,16.30
2020,04,16,10,51,16.40
2020,04,16,10,52,16.40
2020,04,16,10,53,16.40
2020,04,16,10,54,16.40
2020,04,16,10,55,16.40
2020,04,16,10,56,16.40
2020,04,16,10,57,16.40
2020,04,16,10,58,16.30
2020,04,16,10,59,16.30
2020,04,16,11,00,16.30
2020,04,16,11,01,16.40
2020,04,16,11,02,16.40
2020,04,16,11,03,16.50
2020,04,16,11,04,16.60
2020,04,16,11,05,16.80
2020,04,16,11,06,17.00
2020,04,16,11,07,17.10
2020,04,16,11,08,17.20
2020,04,16,11,09,17.10
2020,04,16,11,10,17.20
2020,04,16,11,11,17.20
2020,04,16,11,12,17.30
2020,04,16,11,13,17.30
2020,04,16,11,14,17.30
2020,04,16,11,15,17.30
2020,04,16,11,16,17.30
2020,04,16,11,17,17.30
2020,04,16,11,18,17.20
2020,04,16,11,19,17.10
2020,04,16,11,20,17.00
2020,04,16,11,21,17.00
2020,04,16,11,22,17.00
2020,04,16,11,23,17.00
2020,04,16,11,24,17.10
2020,04,16,11,25,17.30
2020,04,16,11,26,17.30
2020,04,16,11,27,17.30
2020,04,16,11,28,17.40
2020,04,16,11,29,17.50
2020,04,16,11,30,17.60
2020,04,16,11,31,17.70
2020,04,16,11,32,17.80
2020,04,16,11,33,17.80
2020,04,16,11,34,17.90
2020,04,16,11,35,17.90
2020,04,16,11,36,18.00
2020,04,16,11,37,18.10
2020,04,16,11,38,18.20
2020,04,16,11,39,18.20
2020,04,16,11,40,18.10
2020,04,16,11,41,18.10
2020,04,16,11,42,18.00
2020,04,16,11,43,17.90
2020,04,16,11,44,17.90
2020,04,16,11,45,17.90
2020,04,16,11,46,17.80
2020,04,16,11,47,17.80
2020,04,16,11,48,17.90
2020,04,16,11,49,17.90
2020,04,16,11,50,17.90
2020,04,16,11,51,17.90
2020,04,16,11,52,17.80
2020,04,16,11,53,17.80
2020,04,16,11,54,17.90
2020,04,16,11,55,17.90
2020,04,16,11,56,17.80
2020,04,16,11,57,17.80
2020,04,16,11,58,17.80
2020,04,16,11,59,17.80
2020,04,16,12,00,17.80
2020,04,16,12,01,17.90
2020,04,16,12,02,17.90
2020,04,16,12,03,17.90
2020,04,16,12,04,18.10
2020,04,16,12,05,18.20
2020,04,16,12,06,18.10
2020,04,16,12,07,17.90
2020,04,16,12,08,17.90
2020,04,16,12,09,17.90
2020,04,16,12,10,17.90
2020,04,16,12,11,17.90
2020,04,16,12,12,17.90
2020,04,16,12,13,17.90
2020,04,16,12,14,17.90
2020,04,16,12,15,18.00
2020,04,16,12,16,18.20
2020,04,16,12,17,18.20
2020,04,16,12,18,18.20
2020,04,16,12,19,18.20
2020,04,16,12,20,18.20
2020,04,16,12,21,18.30
2020,04,16,12,22,18.40
2020,04,16,12,23,18.40
2020,04,16,12,24,18.40
2020,04,16,12,25,18.40
2020,04,16,12,26,18.40
2020,04,16,12,27,18.40
2020,04,16,12,28,18.40
2020,04,16,12,29,18.40
2020,04,16,12,30,18.40
2020,04,16,12,31,18.50
2020,04,16,12,32,18.50
2020,04,16,12,33,18.50
2020,04,16,12,34,18.50
2020,04,16,12,35,18.50
2020,04,16,12,36,18.50
2020,04,16,12,37,18.40
2020,04,16,12,38,18.30
2020,04,16,12,39,18.10
2020,04,16,12,40,18.20
2020,04,16,12,41,18.30
2020,04,16,12,42,18.30
2020,04,16,12,43,18.20
2020,04,16,12,44,18.10
2020,04,16,12,45,18.10
2020,04,16,12,46,18.20
2020,04,16,12,47,18.20
2020,04,16,12,48,18.20
2020,04,16,12,49,18.20
2020,04,16,12,50,18.20
2020,04,16,12,51,18.10
2020,04,16,12,52,18.10
2020,04,16,12,53,18.10
2020,04,16,12,54,18.00
2020,04,16,12,55,18.10
2020,04,16,12,56,18.30
2020,04,16,12,57,18.40
2020,04,16,12,58,18.40
2020,04,16,12,59,18.40
2020,04,16,13,00,18.40
2020,04,16,13,01,18.40
2020,04,16,13,02,18.40
2020,04,16,13,03,18.40
2020,04,16,13,04,18.40
2020,04,16,13,05,18.50
2020,04,16,13,06,18.50
2020,04,16,13,07,18.50
2020,04,16,13,08,18.60
2020,04,16,13,09,18.60
2020,04,16,13,10,18.70
2020,04,16,13,11,18.80
2020,04,16,13,12,18.80
2020,04,16,13,13,18.90
2020,04,16,13,14,18.90
2020,04,16,13,15,19.00
2020,04,16,13,16,18.90
2020,04,16,13,17,18.90
2020,04,16,13,18,18.80
2020,04,16,13,19,18.80
2020,04,16,13,20,18.80
2020,04,16,13,21,18.80
2020,04,16,13,22,18.90
2020,04,16,13,23,19.00
2020,04,16,13,24,19.10
2020,04,16,13,25,18.90
2020,04,16,13,26,18.90
2020,04,16,13,27,18.90
2020,04,16,13,28,18.80
2020,04,16,13,29,18.80
2020,04,16,13,30,18.70
2020,04,16,13,31,18.70
2020,04,16,13,32,18.60
2020,04,16,13,33,18.60
2020,04,16,13,34,18.50
2020,04,16,13,35,18.40
2020,04,16,13,36,18.20
2020,04,16,13,37,18.00
2020,04,16,13,38,17.80
2020,04,16,13,39,17.70
2020,04,16,13,40,17.50
2020,04,16,13,41,17.40
2020,04,16,13,42,17.30
2020,04,16,13,43,17.30
2020,04,16,13,44,17.40
2020,04,16,13,45,17.40
2020,04,16,13,46,17.40
2020,04,16,13,47,17.50
2020,04,16,13,48,17.40
2020,04,16,13,49,17.30
2020,04,16,13,50,17.30
2020,04,16,13,51,17.10
2020,04,16,13,52,17.10
2020,04,16,13,53,17.10
2020,04,16,13,54,17.10
2020,04,16,13,55,17.20
2020,04,16,13,56,17.10
2020,04,16,13,57,17.10
2020,04,16,13,58,17.10
2020,04,16,13,59,17.00
2020,04,16,14,00,16.80
2020,04,16,14,01,16.60
2020,04,16,14,02,16.50
2020,04,16,14,03,16.40
2020,04,16,14,04,16.30
2020,04,16,14,05,16.20
2020,04,16,14,06,16.20
2020,04,16,14,07,16.20
2020,04,16,14,08,16.10
2020,04,16,14,09,16.10
2020,04,16,14,10,16.10
2020,04,16,14,11,16.10
2020,04,16,14,12,16.10
2020,04,16,14,13,16.10
2020,04,16,14,14,16.10
2020,04,16,14,15,16.10
2020,04,16,14,16,16.10
2020,04,16,14,17,16.10
2020,04,16,14,18,16.10
2020,04,16,14,19,16.10
2020,04,16,14,20,16.10
2020,04,16,14,21,16.20
2020,04,16,14,22,16.30
2020,04,16,14,23,16.40
2020,04,16,14,24,16.40
2020,04,16,14,25,16.50
2020,04,16,14,26,16.60
2020,04,16,14,27,16.70
2020,04,16,14,28,16.80
2020,04,16,14,29,16.90
2020,04,16,14,30,17.00
2020,04,16,14,31,17.10
2020,04,16,14,32,17.20
2020,04,16,14,33,17.30
2020,04,16,14,34,17.40
2020,04,16,14,35,17.60
2020,04,16,14,36,17.70
2020,04,16,14,37,17.80
2020,04,16,14,38,17.90
2020,04,16,14,39,17.90
2020,04,16,14,40,18.00
2020,04,16,14,41,18.10
2020,04,16,14,42,18.20
2020,04,16,14,43,18.20
2020,04,16,14,44,18.20
2020,04,16,14,45,18.20
2020,04,16,14,46,18.20
2020,04,16,14,47,18.20
2020,04,16,14,48,18.20
2020,04,16,14,49,18.00
2020,04,16,14,50,17.90
2020,04,16,14,51,17.90
2020,04,16,14,52,17.70
2020,04,16,14,53,17.70
2020,04,16,14,54,17.80
2020,04,16,14,55,17.80
2020,04,16,14,56,17.80
2020,04,16,14,57,17.70
2020,04,16,14,58,17.60
2020,04,16,14,59,17.50
2020,04,16,15,00,17.60
2020,04,16,15,01,17.60
2020,04,16,15,02,17.50
2020,04,16,15,03,17.60
2020,04,16,15,04,17.60
2020,04,16,15,05,17.70
2020,04,16,15,06,17.80
2020,04,16,15,07,18.00
2020,04,16,15,08,18.10
2020,04,16,15,09,18.30
2020,04,16,15,10,18.40
2020,04,16,15,11,18.50
2020,04,16,15,12,18.60
2020,04,16,15,13,18.70
2020,04,16,15,14,18.80
2020,04,16,15,15,18.90
2020,04,16,15,16,19.00
2020,04,16,15,17,19.10
2020,04,16,15,18,19.10
2020,04,16,15,19,19.30
2020,04,16,15,20,19.40
2020,04,16,15,21,19.50
2020,04,16,15,22,19.50
2020,04,16,15,23,19.60
2020,04,16,15,24,19.60
2020,04,16,15,25,19.50
2020,04,16,15,26,19.50
2020,04,16,15,27,19.50
2020,04,16,15,28,19.60
2020,04,16,15,29,19.60
2020,04,16,15,30,19.80
2020,04,16,15,31,19.90
2020,04,16,15,32,20.10
2020,04,16,15,33,20.30
2020,04,16,15,34,20.40
2020,04,16,15,35,20.50
2020,04,16,15,36,20.50
2020,04,16,15,37,20.60
2020,04,16,15,38,20.60
2020,04,16,15,39,20.50
2020,04,16,15,40,20.20
2020,04,16,15,41,20.20
2020,04,16,15,42,20.20
2020,04,16,15,43,20.10
2020,04,16,15,44,20.00
2020,04,16,15,45,19.90
2020,04,16,15,46,19.90
2020,04,16,15,47,19.80
2020,04,16,15,48,19.50
2020,04,16,15,49,19.20
2020,04,16,15,50,18.90
2020,04,16,15,51,18.50
2020,04,16,15,52,18.00
2020,04,16,15,53,17.70
2020,04,16,15,54,17.40
2020,04,16,15,55,17.20
2020,04,16,15,56,17.10
2020,04,16,15,57,17.00
2020,04,16,15,58,17.00
2020,04,16,15,59,17.10
2020,04,16,16,00,17.20
2020,04,16,16,01,17.30
2020,04,16,16,02,17.30
2020,04,16,16,03,17.40
2020,04,16,16,04,17.50
2020,04,16,16,05,17.60
2020,04,16,16,06,17.50
2020,04,16,16,07,17.50
2020,04,16,16,08,17.50
2020,04,16,16,09,17.60
2020,04,16,16,10,17.70
2020,04,16,16,11,17.70
2020,04,16,16,12,17.70
2020,04,16,16,13,17.60
2020,04,16,16,14,17.60
2020,04,16,16,15,17.50
2020,04,16,16,16,17.50
2020,04,16,16,17,17.50
2020,04,16,16,18,17.60
2020,04,16,16,19,17.50
2020,04,16,16,20,17.50
2020,04,16,16,21,17.60
2020,04,16,16,22,17.60
2020,04,16,16,23,17.70
2020,04,16,16,24,17.90
2020,04,16,16,25,18.00
2020,04,16,16,26,18.10
2020,04,16,16,27,18.20
2020,04,16,16,28,18.20
2020,04,16,16,29,18.30
2020,04,16,16,30,18.30
2020,04,16,16,31,18.20
2020,04,16,16,32,18.20
2020,04,16,16,33,18.20
2020,04,16,16,34,18.10
2020,04,16,16,35,17.90
2020,04,16,16,36,17.80
2020,04,16,16,37,17.70
2020,04,16,16,38,17.60
2020,04,16,16,39,17.60
2020,04,16,16,40,17.60
2020,04,16,16,41,17.60
2020,04,16,16,42,17.50
2020,04,16,16,43,17.50
2020,04,16,16,44,17.60
2020,04,16,16,45,17.70
2020,04,16,16,46,17.80
2020,04,16,16,47,17.90
2020,04,16,16,48,18.00
2020,04,16,16,49,18.10
2020,04,16,16,50,18.20
2020,04,16,16,51,18.30
2020,04,16,16,52,18.40
2020,04,16,16,53,18.50
2020,04,16,16,54,18.50
2020,04,16,16,55,18.60
2020,04,16,16,56,18.60
2020,04,16,16,57,18.70
2020,04,16,16,58,18.70
2020,04,16,16,59,18.60
2020,04,16,17,00,18.60
2020,04,16,17,01,18.70
2020,04,16,17,02,18.70
2020,04,16,17,03,18.80
2020,04,16,17,04,18.80
2020,04,16,17,05,18.90
2020,04,16,17,06,18.90
2020,04,16,17,07,18.70
2020,04,16,17,08,18.70
2020,04,16,17,09,18.60
2020,04,16,17,10,18.60
2020,04,16,17,11,18.50
2020,04,16,17,12,18.40
2020,04,16,17,13,18.30
2020,04,16,17,14,18.30
2020,04,16,17,15,18.20
2020,04,16,17,16,18.10
2020,04,16,17,17,18.10
2020,04,16,17,18,18.10
2020,04,16,17,19,18.10
2020,04,16,17,20,18.00
2020,04,16,17,21,17.80
2020,04,16,17,22,17.60
2020,04,16,17,23,17.50
2020,04,16,17,24,17.40
2020,04,16,17,25,17.30
2020,04,16,17,26,17.30
2020,04,16,17,27,17.30
2020,04,16,17,28,17.30
2020,04,16,17,29,17.30
2020,04,16,17,30,17.30
2020,04,16,17,31,17.30
2020,04,16,17,32,17.30
2020,04,16,17,33,17.30